TimeEDT,TemperatureF,Dew PointF,Humidity,Sea Level PressureIn,VisibilityMPH,Wind Direction,Wind SpeedMPH,Gust SpeedMPH,PrecipitationIn,Events,Conditions,WindDirDegrees,DateUTC
12:52 AM,42.1,35.1,76,30.13,10.0,West,3.5,-,N/A,,Clear,260,2012-10-07 04:52:00
1:52 AM,41.0,35.1,79,30.13,10.0,West,4.6,-,N/A,,Mostly Cloudy,270,2012-10-07 05:52:00
2:52 AM,41.0,36.0,82,30.11,10.0,West,3.5,-,N/A,,Clear,270,2012-10-07 06:52:00
3:52 AM,41.0,37.0,86,30.10,10.0,West,3.5,-,N/A,,Mostly Cloudy,270,2012-10-07 07:52:00
4:52 AM,41.0,37.0,86,30.10,10.0,Calm,Calm,-,N/A,,Mostly Cloudy,0,2012-10-07 08:52:00
5:52 AM,41.0,37.9,89,30.10,10.0,Calm,Calm,-,N/A,,Mostly Cloudy,0,2012-10-07 09:52:00
6:52 AM,39.9,37.9,93,30.11,10.0,SSW,3.5,-,N/A,,Scattered Clouds,210,2012-10-07 10:52:00
7:52 AM,39.9,37.9,93,30.11,10.0,West,3.5,-,N/A,,Overcast,260,2012-10-07 11:52:00
8:52 AM,41.0,37.9,89,30.12,10.0,West,5.8,-,N/A,,Overcast,280,2012-10-07 12:52:00
9:52 AM,43.0,37.9,82,30.13,10.0,WSW,6.9,-,N/A,,Overcast,250,2012-10-07 13:52:00
10:52 AM,44.1,37.0,76,30.14,10.0,WSW,5.8,-,N/A,,Overcast,250,2012-10-07 14:52:00
11:52 AM,46.0,35.1,66,30.14,10.0,West,4.6,-,N/A,,Overcast,280,2012-10-07 15:52:00
12:52 PM,46.9,36.0,66,30.14,10.0,West,8.1,-,N/A,,Overcast,270,2012-10-07 16:52:00
1:12 PM,44.6,33.8,66,30.12,10.0,NW,8.1,-,0.00,,Overcast,310,2012-10-07 17:12:00
1:22 PM,44.6,33.8,66,30.12,10.0,West,4.6,-,0.00,,Overcast,280,2012-10-07 17:22:00
1:41 PM,42.8,37.4,81,30.12,9.0,West,5.8,-,0.01,Rain,Light Rain,260,2012-10-07 17:41:00
1:52 PM,42.1,36.0,79,30.15,10.0,WNW,5.8,-,0.01,Rain,Light Rain,290,2012-10-07 17:52:00
2:03 PM,44.6,35.6,71,30.12,10.0,West,5.8,-,0.00,,Overcast,260,2012-10-07 18:03:00
2:52 PM,46.0,35.1,66,30.13,10.0,WSW,6.9,-,0.00,,Overcast,250,2012-10-07 18:52:00
3:34 PM,46.4,35.6,66,30.11,10.0,WSW,6.9,-,N/A,,Mostly Cloudy,250,2012-10-07 19:34:00
3:52 PM,46.9,35.1,63,30.13,10.0,West,6.9,-,N/A,,Mostly Cloudy,260,2012-10-07 19:52:00
4:21 PM,48.2,35.6,62,30.11,10.0,WSW,8.1,-,N/A,,Mostly Cloudy,240,2012-10-07 20:21:00
4:52 PM,46.9,35.1,63,30.13,10.0,SW,8.1,-,N/A,,Partly Cloudy,220,2012-10-07 20:52:00
5:52 PM,46.0,35.1,66,30.13,10.0,WSW,3.5,-,N/A,,Partly Cloudy,240,2012-10-07 21:52:00
6:52 PM,46.0,35.1,66,30.15,10.0,WSW,6.9,-,N/A,,Overcast,240,2012-10-07 22:52:00
7:52 PM,45.0,36.0,71,30.16,10.0,SW,4.6,-,N/A,,Overcast,220,2012-10-07 23:52:00
8:52 PM,44.1,36.0,73,30.17,10.0,SSW,4.6,-,N/A,,Overcast,210,2012-10-08 00:52:00
9:52 PM,44.1,36.0,73,30.17,10.0,SW,5.8,-,N/A,,Overcast,230,2012-10-08 01:52:00
10:52 PM,44.1,35.1,71,30.18,10.0,SW,4.6,-,N/A,,Overcast,230,2012-10-08 02:52:00
11:52 PM,44.1,33.1,65,30.18,10.0,WSW,4.6,-,N/A,,Overcast,240,2012-10-08 03:52:00